Location: Cedar Brake
(32.2526°N, 97.8459°W)
Time: 17:52:23
(UTC+00:00)

H-2A R/B - Pass Details

Date: 22 April 2026
Orbit: 549 x 612 km, 98.5° (Epoch: 9 May)

Event Time Altitude Azimuth Distance (km) Brightness Sun altitude
Rises 10:45:21 0° 2° (N) 2,747 5.8 -14.5°
Reaches altitude 10° 10:47:36 10° 354° (N) 1,840 4.7 -14.1°
Maximum altitude 10:51:15 36° 287° (WNW) 879 2.5 -13.4°
Enters shadow 10:53:28 20° 232° (SW) 1,316 3.1 -12.9°
